Regional Weather Roundup
Issued by NWS

Home | Current Version | Previous Version | Text Only | Print | Product List | Glossary On
Versions: 1 2 3 4 5 6 7 8 9 10 11 12 13 14 15 16 17 18 19 20 21 22 23 24 25 26 27 28 29 30 31 32 33 34 35 36 37 38 39 40 41 42 43 44 45 46 47 48 49 50
000
ASUS43 KTOP 241759
RWRKS

WEATHER ROUNDUP FOR KANSAS
NATIONAL WEATHER SERVICE GOODLAND KS
100 PM CDT SAT SEP 24 2016

NOTE:  "FAIR" INDICATES FEW OR NO CLOUDS BELOW 12,000 FEET WITH NO
SIGNIFICANT WEATHER AND/OR OBSTRUCTIONS TO VISIBILITY.

KSZ001>006-013>018-027>032-041>047-241900-
NORTHWEST KANSAS

CITY           SKY/WX    TMP DP  RH WIND       PRES   REMARKS
GOODLAND       SUNNY     68  41  37 N6        30.01F
6HR MIN TEMP:  45; 6HR MAX TEMP:  68;

HAYS           CLOUDY    66  48  52 CALM      29.97R
HILL CITY      CLOUDY    69  54  58 N6        29.97S
6HR MIN TEMP:  59; 6HR MAX TEMP:  69;

RUSSELL        RAIN      63  60  90 W7        29.95S
6HR MIN TEMP:  63; 6HR MAX TEMP:  74; 6HR PCP:  0.61;

$$

KSZ061>065-074>080-084>089-241900-
SOUTHWEST KANSAS

CITY           SKY/WX    TMP DP  RH WIND       PRES   REMARKS
DODGE CITY     CLOUDY    70  53  54 VRB5      29.96F
6HR MIN TEMP:  59; 6HR MAX TEMP:  71; 6HR PCP:  0.01;

ELKHART          N/A     72  41  32 NE7         N/A
GARDEN CITY    CLOUDY    72  47  40 N6        29.98S
6HR MIN TEMP:  57; 6HR MAX TEMP:  72;

GREAT BEND     CLOUDY    66  55  68 NW9       29.97R
LIBERAL        MOSUNNY   72  46  40 NE5       29.98F
$$

KSZ066>073-081>083-090>101-241900-
SOUTHEAST KANSAS

CITY           SKY/WX    TMP DP  RH WIND       PRES   REMARKS
CHANUTE        SUNNY     88  70  55 S18       30.01F
6HR MIN TEMP:  71; 6HR MAX TEMP:  88;

COFFEYVILLE    SUNNY     88  70  55 S18G25    30.01F
6HR MIN TEMP:  72; 6HR MAX TEMP:  90;

HUTCHINSON     TSTM      74  71  91 SW12G25   29.95F FOG
6HR MIN TEMP:  72; 6HR MAX TEMP:  81; 6HR PCP:  0.21;

MEDICINE LODGE   N/A     83  69  62 S15G24    29.91F
NEWTON         PTSUNNY  N/A N/A N/A S21       29.95F
PARSONS        CLOUDY    88  70  55 S10G21    30.02F
6HR MIN TEMP:  72; 6HR MAX TEMP:  88;

WICHITA INTL   LGT RAIN  77  70  79 S22G36    29.95F
6HR MIN TEMP:  73; 6HR MAX TEMP:  85; 6HR PCP: TRACE;

WICHITA JABRA  PTSUNNY   83  73  72 S15       29.95F
6HR MIN TEMP:  71; 6HR MAX TEMP:  83; 6HR PCP:  0.01;

WICHITA MCCONL MOSUNNY   82  72  72 SW20G26   29.95F
WINFIELD       MOSUNNY   88  71  57 S18       29.98F
6HR MIN TEMP:  73; 6HR MAX TEMP:  89;

$$

KSZ007>012-019>026-033>040-048>060-102>105-241900-
NORTHEAST KANSAS

CITY           SKY/WX    TMP DP  RH WIND       PRES   REMARKS
CONCORDIA      LGT RAIN  73  73 100 SE7       29.94F FOG
6HR MIN TEMP:  71; 6HR MAX TEMP:  78; 6HR PCP:  0.11;

EMPORIA        MOSUNNY   85  73  67 S17G24    29.98F
6HR MIN TEMP:  71; 6HR MAX TEMP:  86;

LAWRENCE       MOSUNNY   87  72  60 S17G26    29.99F
6HR MIN TEMP:  68; 6HR MAX TEMP:  88; 6HR PCP: TRACE;

MANHATTAN      LGT RAIN  79  72  79 W10       29.94S
6HR MIN TEMP:  74; 6HR MAX TEMP:  87; 6HR PCP:  0.01;

OLATHE IND     MOSUNNY   85  72  65 S12       30.02F
6HR MIN TEMP:  69; 6HR MAX TEMP:  85;

OLATHE EXE     MOSUNNY   83  70  64 S12       30.03F
6HR MIN TEMP:  67; 6HR MAX TEMP:  84;

SALINA         LGT RAIN  79  73  82 SW16      29.95S
6HR MIN TEMP:  75; 6HR MAX TEMP:  82; 6HR PCP:  0.15;

TOPEKA BILLARD MOSUNNY   87  70  56 S14G24    29.97F
6HR MIN TEMP:  71; 6HR MAX TEMP:  87;

TOPEKA FORBES  PTSUNNY   88  71  57 S12G25    29.98F
6HR MIN TEMP:  71; 6HR MAX TEMP:  88;

$$




USA.gov is the U.S. government's official web portal to all federal, state and local government web resources and services.